Torna al catalogo

DELTA 1 DEB

AttivoLEO
NORAD 3123·DEBRIS·🇺🇸 United States

Lanciato Nov 10, 1967 da Vandenberg Space Force Base

Loading…

Prossimi Passaggi (prossime 24 ore)

TLE

AggiornatoSource: Space-Track

Epoca: Sep 14, 2026, 07:51 UTC

1 03123U 67114D   26257.32775973 -.00000037  00000-0  78012-4 0  9996
2 03123 102.4915  35.8270 0028451  96.7482 293.2511 12.48109058679883

Traccia DELTA 1 DEB in tempo reale con AllMySat

Download on the App Store